Weather reports worldwide

Advertisment
Aboyne, United Kingdom (3080): temperature & dewpoint: 11.08.2018 00:00:00 - 17.08.2018 00:00:00 (BST)Aboyne, United Kingdom (3080): temperature -20cm & temperature -100cm: 11.08.2018 00:00:00 - 17.08.2018 00:00:00 (BST)Aboyne, United Kingdom (3080): wind speed & gusts: 11.08.2018 00:00:00 - 17.08.2018 00:00:00 (BST)Aboyne, United Kingdom (3080): wind direction: 11.08.2018 00:00:00 - 17.08.2018 00:00:00 (BST)Aboyne, United Kingdom (3080): reduced air pressure: 11.08.2018 00:00:00 - 17.08.2018 00:00:00 (BST)Aboyne, United Kingdom (3080): visibility: 11.08.2018 00:00:00 - 17.08.2018 00:00:00 (BST)Aboyne, United Kingdom (3080): precipitation: 11.08.2018 00:00:00 - 17.08.2018 00:00:00 (BST)
Date & Time tt [°C] td [°C] tt -20cm [°C] tt -100cm [°C] ff [km/h] ff [kn] fx [km/h] fx [kn] dd ppp [hPa] vv [km] rr [mm]
17.08.2018 00:00:00 12,2 7,7 - - 15 8 - - W 1007,5 50 0,0
16.08.2018 23:00:00 8,8 7,0 - - 5 3 - - W 1007,3 45 0,0
16.08.2018 22:00:00 9,4 6,6 - - 4 2 - - ENE 1006,9 50 0,0
16.08.2018 21:00:00 11,6 7,0 - - 9 5 - - W 1006,1 50 0,0
16.08.2018 20:00:00 14,3 6,2 - - 18 10 - - W 1005,2 50 0,0
16.08.2018 19:00:00 16,4 7,5 - - 15 8 - - W 1004,4 45 0,0
16.08.2018 18:00:00 17,0 8,4 - - 18 10 - - W 1003,9 50 0,0
16.08.2018 17:00:00 15,9 7,8 - - 26 14 - - W 1003,8 50 0,0
16.08.2018 16:00:00 16,7 9,2 - - 21 11 - - W 1003,3 50 0,0
16.08.2018 15:00:00 13,7 10,9 - - 16 9 - - W 1003,4 30 0,8
16.08.2018 14:00:00 17,2 7,6 - - 22 12 - - WSW 1002,8 50 0,0
16.08.2018 13:00:00 18,2 9,2 - - 22 12 46 25 WSW 1002,6 40 0,0
16.08.2018 12:00:00 16,3 9,9 - - 26 14 - - SW 1003,0 50 0,0
16.08.2018 11:00:00 16,7 8,4 - - 18 10 - - WSW 1002,8 40 0,0
16.08.2018 10:00:00 15,4 8,6 15,7 14,7 21 11 - - SW 1003,0 35 0,0
16.08.2018 09:00:00 14,6 7,8 - - 18 10 - - SW 1003,0 35 0,0
16.08.2018 08:00:00 13,2 8,7 - - 8 4 - - S 1003,0 30 0,0
16.08.2018 07:00:00 7,8 6,5 - - 4 2 - - WNW 1003,4 27 0,0
16.08.2018 06:00:00 6,7 4,7 - - 5 3 - - ENE 1003,1 27 0,0
16.08.2018 05:00:00 8,0 5,6 - - 8 4 - - W 1002,9 35 0,0
16.08.2018 04:00:00 11,7 7,5 - - 9 5 - - WNW 1002,8 40 0,0
16.08.2018 03:00:00 14,4 9,7 - - 15 8 - - SW 1002,2 50 0,0
16.08.2018 02:00:00 14,3 10,3 - - 8 4 - - SSW 1002,6 50 0,0
16.08.2018 01:00:00 11,6 8,9 - - 2 1 - - WSW 1003,3 45 0,0
16.08.2018 00:00:00 14,8 9,6 - - 13 7 - - SSW 1003,4 50 0,0
15.08.2018 23:00:00 14,9 8,7 - - 8 4 - - W 1003,4 50 0,0
15.08.2018 22:00:00 15,5 8,3 - - 16 9 - - SW 1003,6 45 0,0
15.08.2018 21:00:00 15,5 8,0 - - 21 11 - - SW 1003,6 50 0,0
15.08.2018 20:00:00 16,6 7,7 - - 21 11 - - WSW 1003,5 50 0,0
15.08.2018 19:00:00 16,5 8,5 - - 15 8 - - WSW 1003,9 50 0,0
15.08.2018 18:00:00 17,3 9,1 - - 28 15 - - SW 1004,2 45 0,0
15.08.2018 17:00:00 18,9 9,0 - - 29 16 - - WSW 1004,1 40 0,0
15.08.2018 16:00:00 20,5 9,5 - - 28 15 - - WSW 1004,2 40 0,0
15.08.2018 15:00:00 20,8 11,5 - - 24 13 - - SW 1004,4 40 0,0
15.08.2018 14:00:00 20,2 10,6 - - 26 14 - - WSW 1004,4 50 0,0
15.08.2018 13:00:00 19,6 11,7 - - 22 12 - - SW 1004,9 45 0,0
15.08.2018 12:00:00 18,7 12,6 - - 11 6 - - WSW 1005,0 45 0,0
15.08.2018 11:00:00 17,6 12,6 - - 5 3 - - S 1005,7 45 0,0
15.08.2018 10:00:00 17,7 13,0 15,7 14,7 5 3 - - W 1005,6 50 0,0
15.08.2018 09:00:00 15,5 13,9 - - 5 3 - - SE 1005,4 50 0,0
15.08.2018 08:00:00 14,1 13,0 - - 4 2 - - N 1005,8 50 0,0
15.08.2018 07:00:00 12,8 11,7 - - 5 3 - - E 1006,2 50 0,0
15.08.2018 06:00:00 12,3 11,1 - - 2 1 - - NE 1006,5 50 0,0
15.08.2018 05:00:00 12,6 11,8 - - 4 2 - - S 1006,8 50 0,0
15.08.2018 04:00:00 12,4 10,8 - - 8 4 - - WNW 1007,4 40 0,0
15.08.2018 03:00:00 11,7 10,4 - - 5 3 - - E 1007,7 50 0,0
15.08.2018 02:00:00 11,8 10,2 - - 4 2 - - E 1008,2 50 0,0
15.08.2018 01:00:00 11,8 10,2 - - 5 3 - - SSW 1008,4 50 0,0
15.08.2018 00:00:00 12,2 9,8 - - 2 1 - - NE 1008,8 45 0,0
14.08.2018 23:00:00 13,2 9,8 - - 5 3 - - NE 1008,7 50 0,0
14.08.2018 22:00:00 15,9 10,4 - - 8 4 - - NW 1008,2 50 0,0
14.08.2018 21:00:00 16,7 10,3 - - 9 5 - - W 1008,3 50 0,0
14.08.2018 20:00:00 18,1 10,6 - - 16 9 46 25 W 1007,9 45 0,0
14.08.2018 19:00:00 19,9 11,7 - - 24 13 - - WSW 1006,9 50 0,0
14.08.2018 18:00:00 20,7 13,6 - - 24 13 - - WSW 1007,2 50 0,0
14.08.2018 17:00:00 20,9 14,2 - - 21 11 - - WSW 1007,3 45 0,0
14.08.2018 16:00:00 19,5 13,5 - - 18 10 - - SW 1007,7 50 0,0
14.08.2018 15:00:00 19,8 15,4 - - 4 2 - - N 1007,9 35 0,0
14.08.2018 14:00:00 16,4 14,3 - - 8 4 - - WSW 1008,7 30 0,6
14.08.2018 13:00:00 18,0 12,4 - - 15 8 - - W 1008,4 50 0,0
14.08.2018 12:00:00 17,9 12,3 - - 15 8 - - W 1008,6 50 0,0
14.08.2018 11:00:00 17,8 13,8 - - 5 3 - - E 1008,4 50 0,0
14.08.2018 10:00:00 14,6 12,9 15,4 14,7 2 1 - - SE 1008,8 45 0,0
14.08.2018 09:00:00 13,0 12,9 - - 2 1 - - SSE 1008,8 45 0,0
14.08.2018 08:00:00 10,8 10,8 - - 4 2 - - ENE 1009,2 35 0,0
14.08.2018 07:00:00 9,0 9,0 - - 2 1 - - N 1009,4 0,6 0,0
14.08.2018 06:00:00 7,6 7,5 - - 2 1 - - WNW 1009,4 4,0 0,0
14.08.2018 05:00:00 8,5 8,4 - - 2 1 - - W 1009,3 - 0,2
14.08.2018 04:00:00 9,0 8,8 - - 5 3 - - WNW 1009,2 0,2 0,0
14.08.2018 03:00:00 9,9 9,7 - - 2 1 - - N 1009,7 5 0,0
14.08.2018 02:00:00 11,0 10,9 - - 4 2 - - ESE 1009,8 5 0,0
14.08.2018 01:00:00 11,4 11,4 - - 8 4 - - ESE 1009,7 8 0,0
14.08.2018 00:00:00 11,3 11,3 - - 8 4 - - E 1009,4 3,9 0,0
13.08.2018 23:00:00 11,0 10,9 - - 8 4 - - E 1009,4 0,2 0,0
13.08.2018 22:00:00 11,4 10,2 - - 8 4 - - E 1009,3 0,6 0,0
13.08.2018 21:00:00 14,0 12,6 - - 5 3 - - ENE 1009,2 30 0,0
13.08.2018 20:00:00 15,2 13,3 - - 8 4 - - ESE 1008,9 30 0,0
13.08.2018 19:00:00 15,2 13,1 - - 9 5 - - ESE 1008,7 40 0,0
13.08.2018 18:00:00 15,2 12,7 - - 5 3 - - ESE 1008,9 40 0,0
13.08.2018 17:00:00 15,2 12,9 - - 4 2 - - E 1009,0 40 0,0
13.08.2018 16:00:00 14,9 12,3 - - 5 3 - - E 1009,3 45 0,0
13.08.2018 15:00:00 14,5 12,1 - - 4 2 - - ENE 1009,3 35 0,0
13.08.2018 14:00:00 14,1 12,5 - - 5 3 - - ESE 1009,4 29 0,0
13.08.2018 13:00:00 13,3 12,8 - - 9 5 - - E 1009,3 6 0,0
13.08.2018 12:00:00 13,1 12,6 - - 9 5 - - E 1009,2 5 0,0
13.08.2018 11:00:00 13,1 12,6 - - 9 5 - - E 1009,1 6 0,0
13.08.2018 10:00:00 12,7 12,4 15,7 14,9 5 3 - - E 1009,0 5 0,6
13.08.2018 09:00:00 12,4 12,1 - - 4 2 - - SE 1009,0 4,6 0,8
13.08.2018 08:00:00 12,1 11,8 - - 4 2 - - E 1008,9 6 0,6
13.08.2018 07:00:00 11,9 11,7 - - 4 2 - - ENE 1008,5 6 1,0
13.08.2018 06:00:00 11,9 11,6 - - 4 2 - - ENE 1008,4 5 1,2
13.08.2018 05:00:00 12,0 11,6 - - 4 2 - - E 1008,4 5 0,8
13.08.2018 04:00:00 12,2 11,9 - - 5 3 - - E 1008,5 4,9 0,8
13.08.2018 03:00:00 12,2 11,9 - - 5 3 - - ENE 1008,8 4,2 1,6
13.08.2018 02:00:00 12,2 11,9 - - 4 2 - - ENE 1008,9 4,2 0,2
13.08.2018 01:00:00 12,2 11,9 - - 5 3 - - ENE 1009,1 14 0,2
13.08.2018 00:00:00 11,9 11,8 - - 2 1 - - SSE 1009,3 3,3 0,8
12.08.2018 23:00:00 11,7 11,5 - - 4 2 - - W 1009,4 2,3 0,2
12.08.2018 22:00:00 11,6 11,4 - - 2 1 - - W 1009,6 4,4 0,4
12.08.2018 21:00:00 11,7 11,2 - - 2 1 - - S 1009,7 3,0 0,2
12.08.2018 20:00:00 11,8 11,0 - - 9 5 - - ENE 1009,7 4,1 0,4
12.08.2018 19:00:00 12,7 12,0 - - 13 7 - - E 1009,7 3,3 0,2
12.08.2018 18:00:00 14,2 11,2 - - 15 8 - - E 1009,5 40 0,0
12.08.2018 17:00:00 14,4 11,9 - - 11 6 - - ESE 1009,5 35 0,0
12.08.2018 16:00:00 14,2 11,7 - - 15 8 - - ESE 1009,8 29 0,0
12.08.2018 15:00:00 13,8 11,9 - - 16 9 - - E 1010,1 30 0,2
12.08.2018 14:00:00 13,9 12,4 - - 16 9 - - E 1010,2 24 0,2
12.08.2018 13:00:00 13,6 11,9 - - 18 10 - - E 1010,2 13 0,0
12.08.2018 12:00:00 14,1 12,1 - - 15 8 - - E 1010,2 30 0,2
12.08.2018 11:00:00 13,0 11,0 - - 15 8 - - E 1010,4 11 0,0
12.08.2018 10:00:00 13,3 10,4 15,7 15,0 13 7 - - E 1010,4 45 0,0
12.08.2018 09:00:00 12,7 11,3 - - 8 4 - - E 1010,4 11 0,0
12.08.2018 08:00:00 12,2 11,0 - - 8 4 - - E 1010,5 40 0,0
12.08.2018 07:00:00 11,6 10,9 - - 4 2 - - ENE 1010,7 30 0,0
12.08.2018 06:00:00 10,8 10,2 - - 2 1 - - N 1010,9 40 0,0
12.08.2018 05:00:00 10,2 9,7 - - 2 1 - - WSW 1011,1 30 0,0
12.08.2018 04:00:00 9,8 9,3 - - 4 2 - - NNW 1011,8 40 0,0
12.08.2018 03:00:00 9,9 9,0 - - 4 2 - - NW 1012,5 35 0,0
12.08.2018 02:00:00 10,1 8,7 - - 2 1 - - NNW 1012,9 45 0,0
12.08.2018 01:00:00 9,7 7,4 - - 2 1 - - E 1013,4 50 0,0
12.08.2018 00:00:00 10,9 8,7 - - 4 2 - - NE 1013,9 50 0,0
11.08.2018 23:00:00 11,7 9,3 - - 8 4 - - E 1014,3 50 0,0
11.08.2018 22:00:00 12,3 8,8 - - 2 1 - - SE 1014,8 45 0,0
11.08.2018 21:00:00 14,1 7,5 - - 8 4 - - S 1014,9 50 0,0
11.08.2018 20:00:00 15,4 7,3 - - 5 3 - - S 1014,8 50 0,0
11.08.2018 19:00:00 16,7 7,2 - - 5 3 - - W 1014,8 40 0,0
11.08.2018 18:00:00 17,4 7,3 - - 5 3 - - WNW 1014,9 50 0,0
11.08.2018 17:00:00 17,9 8,4 - - 2 1 - - SSW 1015,3 50 0,0
11.08.2018 16:00:00 17,3 9,2 - - 13 7 - - E 1015,7 50 0,0
11.08.2018 15:00:00 16,2 9,5 - - 11 6 - - E 1016,5 45 0,0
11.08.2018 14:00:00 16,0 9,5 - - 9 5 - - E 1016,8 35 0,0
11.08.2018 13:00:00 15,0 9,2 - - 9 5 - - E 1017,1 40 0,0
11.08.2018 12:00:00 14,5 9,3 - - 8 4 - - E 1017,5 45 0,0
11.08.2018 11:00:00 13,5 8,3 - - 4 2 - - SSE 1017,8 45 0,0
11.08.2018 10:00:00 13,0 9,2 15,7 15,0 4 2 - - WNW 1018,0 45 0,0
11.08.2018 09:00:00 11,3 8,8 - - 8 4 - - NW 1018,5 50 0,0
11.08.2018 08:00:00 9,6 8,2 - - 11 6 - - W 1018,7 35 0,0
11.08.2018 07:00:00 9,1 8,3 - - 8 4 - - WNW 1018,6 45 0,0
11.08.2018 06:00:00 9,0 8,6 - - 11 6 - - W 1018,1 45 0,0
11.08.2018 05:00:00 8,3 8,0 - - 5 3 - - NW 1017,9 29 0,0
11.08.2018 04:00:00 9,0 8,9 - - 4 2 - - WNW 1018,0 23 0,0
11.08.2018 03:00:00 8,9 8,8 - - 2 1 - - W 1018,1 11 0,0
11.08.2018 02:00:00 8,5 8,1 - - 4 2 - - NNW 1018,2 17 0,0
11.08.2018 01:00:00 9,7 9,4 - - 0 0 - - N 1017,9 14 0,0
11.08.2018 00:00:00 9,9 9,7 - - 4 2 - - WSW 1017,8 22 0,0

tt = temperature
td = dewpoint
tt -20cm = temperature -20cm
tt -100cm = temperature -100cm
ff = wind speed
fx = gusts
dd = wind direction
ppp = reduced air pressure
vv = visibility
rr = precipitation

Next stations